FALCONSAT-3 (30776 NORAD) Tracking and Keplerian Element Data

This shows tracking and keplerian element data for the satellite.

Feedback or suggestion? Click here.




ElementValue
Catalog30776
NameFALCONSAT-3
Epoch Orbit62904
Epoch Day198.91238166
Epoch Year2018
RAAN71.1305
Inclination35.4361
Eccentricity0.0003881
Argument of Perigee298.4222
Mean Anonmoly61.6113
Mean Motion15.34651037
Decay Rate1.811E-05
L11 30776U 07006E 18198.91238166 .00001811 00000-0 54209-4 0 9994
L22 30776 35.4361 71.1305 0003881 298.4222 61.6113 15.34651037629047

Live tracking and technical data element details for FALCONSAT-3 (NORAD 30776). FALCONSAT-3 can be tracked NOW for your location showing map with azimuth and elevation plus other details from your city location.

Track the satellite on the map from your city or location and see movement details for azimuth, elevation, latitude, longitude, range, height, and movement on the map or in text.







IsCatalogInMostPopularTable: catalog: 30776, numindb: 51
Update: records affected: 1



GetName: 30776 FALCONSAT-3

Hit Count: updated at: Wed, 18 Jul 2018 20:31:32 GMT